Weather in Verkhniy Seymchan

Russia / Magadan District     62°43′24″N   152°28′10″E
temp.,
°C
wind,
m/s
gust,
m/s
humid.,
%
clouds,
%
prec.,
mm/h
press.,
hPa
HPBL,
m
15 may, sat
sat1523:00−3wnw11915 0.0 101710
02:00−4w01925 0.0 101910
05:00−5ssw11946 0.0 101914
08:00−2sse118614 0.0 1020198
11:000sse22789 0.0 1020409
14:00+2se33705 0.0 1018605
17:00+3ese44655 0.0 1017691
20:00+2e34751 0.0 101763
16 may, sun
sun1623:000ese33835 0.0 101746
02:00−1ese33825 0.0 101638
05:00−1se33795 0.0 101595
08:00+1se34705 0.0 1014287
11:00+4se45675 0.0 1013632
14:00+7sse456469 0.0 10111044
17:00+7sse5662100 0.0 1009932
20:00+5ese4778100 0.0 1009195
17 may, mon
mon1723:00+3ese4685100 0.0 1008102
02:00+2ese4681100 0.0 1008111
05:00+1ese3578100 0.0 1006102
08:00+4ese2464100 0.0 1006257
11:00+6ese565299 0.0 1004665
14:00+9ese874387 0.0 10021376
17:00+8se774598 0.0 10011536
20:00+6ese9958100 0.0 1002767
18 may, tue
tue1823:00+4e6964100 0.0 1002302
02:00+3ese71065100 0.0 1002280
05:00+2ese5869100 0.0 1002251
08:00+4se4560100 0.0 1002479
11:00+6se665083 0.0 10011145
14:00+8sse5645100 0.0 10001668
17:00+8sse564792 0.0 10001500
20:00+6sse5551100 0.1 10011244
19 may, wed
wed1923:00+5ese466566 0.1 1001164
02:00+2ese347410 0.0 100174
05:00+2e337416 0.0 100169
08:00+4ese345833 0.0 1000564
11:00+7se444895 0.0 10001382
14:00+8se444999 0.0 9991452
17:00+8se4347100 0.1 9991411
20:00+8se554927 0.0 9991160